SCP
0 0 1 1 1 0 0 0 0 0 0 0 0 0 0 0 0 0 0 0 0 0 0 0 0 0 0 0 0 0 0 0 0 0 0 0 0 0 0 0 0 0 0 0 0 0 0 0 0
0 0 1 1 0 0 0 0 0 0 0 0 0 0 0 0 0 0 0 0 0 0 0 0 0 0 0 0 0 0 0 0 0 0 0 0 0 0 0 0 0 0 0 0 0 0 0 0 0
0 0 1 1 0 0 0 0 0 0 0 0 0 0 0 0 0 0 0 0 0 0 0 0 0 0 0 0 0 0 0 0 0 0 0 0 0 0 0 0 0 0 0 0 0 0 0 0 0
0 0 0 0 0 0 0 0 0 0 0 0 0 0 0 0 0 0 0 0 0 0 0 0 0 0 0 0 0 0 0 0 0 0 0 0 0 0 0 0 0 0 0 0 0 0 0 0 0
0 0 0 0 0 0 0 0 0 0 0 0 0 0 0 0 0 0 0 0 0 0 0 0 0 0 0 0 0 0 0 0 0 0 0 0 0 0 0 0 0 0 0 0 0 0 0 0 0
1 0 0 0 0 0 0 0 0 0 0 0 0 0 1 1 1 0 0 0 0 0 0 0 0 0 0 0 0 0 0 0 0 0 0 0 0 0 0 0 0 0 0 0 0 0 0 0 0
0 0 0 0 0 0 0 0 0 0 0 0 0 0 1 1 1 0 0 0 0 0 0 0 0 0 0 0 0 0 0 0 0 0 0 0 0 0 0 0 0 0 1 0 0 0 0 0 0
0 0 0 0 0 0 0 0 0 0 0 0 0 1 1 1 1 1 0 0 0 0 0 0 0 0 0 0 0 0 0 0 0 0 0 0 0 0 0 0 0 0 1 1 0 0 0 0 0
0 0 0 0 0 0 0 0 0 0 0 0 1 1 1 1 1 0 0 0 0 0 0 0 0 0 0 0 0 0 0 0 0 0 0 0 0 0 0 0 0 0 1 1 1 0 0 0 0
0 0 0 0 0 0 0 0 0 0 0 0 1 1 1 1 0 0 0 0 0 0 0 0 0 0 0 0 0 0 0 0 0 0 0 0 0 0 0 0 0 0 0 1 1 1 0 0 0
0 0 0 0 0 0 0 0 0 0 0 0 0 1 1 1 0 0 0 0 0 0 0 0 0 0 0 0 0 0 0 0 0 0 0 0 0 0 0 0 0 0 0 0 1 1 1 0 0
0 0 0 0 0 0 0 0 0 0 0 0 0 1 1 1 0 0 0 0 0 0 0 0 0 0 0 0 0 0 0 0 0 0 0 0 0 0 0 0 0 0 0 0 0 1 1 0 0
0 0 0 0 0 0 0 0 0 0 0 0 0 1 1 0 0 1 1 0 0 0 0 0 0 0 0 0 0 0 0 0 0 0 0 0 0 0 0 0 0 0 0 0 0 1 1 1 1
0 0 0 0 0 0 0 0 0 0 0 0 0 0 0 0 0 0 1 1 1 0 0 0 0 0 0 0 0 0 0 0 0 0 0 0 0 0 0 0 0 0 0 0 0 0 1 1 1
0 0 0 0 0 0 0 0 0 0 0 0 0 0 0 0 0 0 0 1 1 1 1 1 1 0 0 0 0 0 0 0 0 0 0 0 0 0 0 0 0 0 0 0 0 0 1 1 1
0 0 0 0 0 0 0 0 0 0 0 0 0 0 0 0 0 0 0 0 0 1 1 1 1 1 1 1 0 0 0 0 0 0 0 0 0 0 0 0 0 0 0 0 0 0 0 1 1
0 0 0 0 0 0 0 0 0 0 0 0 0 0 0 0 0 0 0 0 0 1 1 1 1 1 1 1 1 0 0 0 0 0 0 0 0 0 0 0 0 0 0 0 0 0 0 0 0
0 0 0 0 0 0 0 0 0 0 0 0 0 0 0 0 0 0 0 0 0 1 1 1 1 1 1 1 1 1 0 0 0 0 0 0 0 0 0 0 0 0 0 0 0 0 0 0 0
0 0 0 0 0 0 0 0 0 0 0 0 0 0 0 0 0 0 0 0 0 0 1 1 1 1 1 1 1 1 1 1 1 0 0 0 0 0 0 0 0 0 0 0 0 0 0 0 0
0 0 0 0 0 0 0 0 0 0 0 0 0 0 0 0 0 0 0 0 0 0 0 1 1 1 1 1 1 1 1 1 1 0 0 0 0 0 0 0 0 0 0 0 0 0 0 0 0
0 0 0 0 0 0 0 0 0 0 0 0 0 0 0 0 0 0 0 0 0 0 0 1 1 1 1 1 1 1 1 1 0 0 0 0 0 0 0 0 0 0 0 0 0 0 0 0 0
0 0 0 0 0 0 0 0 0 0 0 0 0 0 0 0 0 0 0 0 0 0 0 0 0 1 1 1 1 1 1 1 0 0 0 0 0 0 0 0 0 0 0 0 0 0 0 0 0
0 0 0 0 0 0 0 0 0 0 0 0 0 0 0 0 0 0 0 0 0 0 0 0 0 0 1 1 1 1 1 1 1 0 0 0 0 0 0 0 0 0 0 0 0 0 0 0 0
0 0 0 0 0 0 0 0 0 0 0 0 0 0 0 0 0 0 0 0 0 0 0 0 0 0 0 0 1 1 1 1 1 1 1 0 0 0 0 0 0 0 0 0 0 0 0 0 0
0 0 0 0 0 0 0 0 0 0 0 0 0 0 0 0 0 0 0 0 0 0 0 0 0 0 0 0 0 1 1 1 1 1 1 0 0 0 0 0 0 0 0 0 0 0 0 0 0
0 0 0 0 0 0 0 0 0 0 0 0 0 0 0 0 0 0 0 0 0 0 0 0 0 0 0 0 0 0 0 1 1 1 0 0 0 0 0 0 0 0 0 0 0 0 0 0 0
0 0 0 0 0 0 0 0 0 0 0 0 0 0 0 0 0 0 0 0 0 0 0 0 0 0 0 0 0 0 0 0 0 0 0 0 0 0 0 0 0 0 0 0 0 0 0 0 0
0 0 0 0 0 0 0 0 0 0 0 0 0 0 0 0 0 0 0 0 0 0 0 0 0 0 0 0 0 0 0 0 0 0 0 0 0 0 0 0 0 0 0 0 0 0 0 0 0
0 0 0 0 0 0 0 0 0 0 0 0 0 0 0 0 0 0 0 0 0 0 0 0 0 0 0 0 0 0 0 0 0 0 0 0 0 0 0 0 0 0 0 0 0 0 0 0 0
0 0 0 0 0 0 0 0 0 0 0 0 0 0 0 0 0 0 0 0 0 0 0 0 0 0 0 0 0 0 0 0 0 0 0 0 0 0 0 0 0 0 0 0 0 0 0 0 0
Wind_Speed
14 11 7 3 3 3 2 1 4 6 6 7 8 7 9 11 8 8 3 5 7 8 8 7 7 8 8 8 8 7 7 7 8 8 8 8 8 9 9 8 8 8 9 9 9 9 9 8 8
11 9 5 3 4 3 2 2 6 8 7 6 6 7 8 10 9 6 4 5 7 8 7 7 7 8 8 8 8 7 7 7 7 8 8 8 7 8 8 7 7 7 7 8 8 8 7 7 7
11 7 4 3 3 3 1 5 7 9 8 5 5 7 7 7 7 4 4 4 7 8 7 7 8 8 9 8 8 7 7 7 7 7 7 7 7 7 7 7 7 7 6 7 7 7 6 6 5
5 3 3 3 2 1 3 4 5 7 7 5 6 8 8 7 5 4 3 5 7 8 8 8 8 9 8 8 8 7 7 6 6 6 6 6 7 7 7 7 6 6 6 6 5 5 5 4 4
4 3 4 4 3 0 3 4 3 5 5 5 6 8 7 7 8 6 4 6 7 8 8 7 8 8 8 7 7 7 6 6 6 6 6 6 6 6 6 6 6 5 5 5 4 4 3 3 3
3 3 4 5 4 1 2 4 5 6 6 5 5 6 7 6 7 5 6 6 8 8 8 7 8 8 7 7 6 6 6 6 6 6 6 6 5 5 5 5 4 4 4 3 3 3 3 2 2
3 3 5 5 5 2 2 4 5 5 5 5 3 5 6 6 6 5 5 6 8 8 7 5 5 5 6 6 6 6 6 6 6 5 5 5 4 4 4 4 3 3 2 2 2 2 2 2 2
3 2 4 5 4 2 3 3 4 6 5 5 6 5 4 3 4 5 6 7 7 7 6 5 4 3 3 3 5 6 6 5 5 5 4 3 3 3 3 3 3 2 2 2 2 1 1 2 3
3 2 3 3 3 2 4 4 4 7 7 8 8 8 6 5 5 6 6 7 7 7 5 4 4 4 3 3 4 4 4 4 4 3 2 1 0 1 1 1 2 2 3 3 3 2 2 3 4
1 2 3 1 2 3 4 4 3 5 6 6 8 10 9 7 6 7 6 6 6 6 5 4 4 4 3 2 2 1 2 2 2 2 2 1 1 1 1 1 1 1 2 3 3 3 3 3 2
1 2 2 3 3 4 4 5 4 3 4 4 5 7 7 7 6 6 5 5 4 4 5 5 5 3 3 2 2 1 1 2 2 3 2 2 2 2 2 1 0 1 2 2 2 2 2 2 2
2 2 2 2 3 4 3 3 4 6 4 5 6 7 7 6 5 4 4 4 4 4 4 5 5 5 4 3 2 2 2 2 2 3 3 2 2 2 2 2 2 1 1 1 1 2 3 3 3
2 2 4 4 4 5 6 4 4 4 5 6 7 7 7 6 5 4 4 4 4 4 4 4 4 5 5 4 3 3 2 2 2 2 3 3 2 2 2 2 2 2 2 2 2 2 3 3 3
4 5 4 3 4 4 6 3 2 2 4 5 6 6 6 5 5 4 4 5 4 4 3 3 3 4 4 4 3 3 3 3 3 3 3 3 2 2 2 2 2 3 2 2 3 3 3 3 2
5 4 2 1 2 3 3 2 1 2 3 4 4 5 5 5 5 5 4 4 4 4 4 4 3 4 4 3 3 3 2 2 3 3 3 4 3 3 2 2 2 3 3 3 3 4 3 3 3
4 3 2 2 2 2 3 3 3 3 3 3 3 3 4 4 4 4 4 4 3 3 3 3 4 3 3 3 3 2 3 3 2 3 3 4 4 4 2 2 3 3 3 3 3 3 3 3 3
4 4 5 3 2 2 3 3 3 4 4 4 3 2 3 3 4 3 4 3 3 3 3 3 3 3 3 3 3 3 3 3 3 2 2 3 4 4 3 2 2 3 3 3 4 3 3 4 4
4 4 3 4 2 3 3 3 3 3 4 4 3 3 2 2 3 3 3 3 3 3 3 3 3 2 2 2 2 2 3 3 3 3 3 3 3 4 3 2 3 3 3 3 3 4 4 3 4
1 2 2 2 2 2 4 4 4 4 3 3 3 3 2 2 2 3 4 4 4 3 3 3 3 2 2 2 2 2 2 2 2 3 4 4 4 4 3 3 3 3 2 3 4 3 4 4 4
3 3 2 1 1 1 3 4 3 4 3 2 2 2 2 2 2 3 3 4 3 3 3 3 3 3 2 1 1 1 1 1 2 2 3 5 5 5 4 4 3 3 2 3 4 3 3 3 3
4 3 3 2 1 2 2 3 5 4 4 3 2 2 2 2 1 2 2 3 3 3 2 3 3 3 3 2 1 2 1 1 2 3 3 4 4 5 4 4 4 4 3 3 3 3 3 3 3
4 2 2 3 2 2 3 4 6 7 7 6 4 3 2 2 2 1 1 2 3 3 3 3 3 3 2 2 1 1 1 1 2 1 2 3 4 4 4 4 4 3 3 3 3 3 3 2 3
2 1 2 4 3 2 3 4 4 6 6 8 6 4 3 2 2 1 1 1 2 3 3 3 3 3 2 2 2 1 1 1 1 2 2 3 3 4 4 4 3 3 3 3 3 3 3 2 2
1 1 3 4 3 5 6 5 4 6 7 6 6 5 4 3 2 1 2 2 3 3 3 3 3 3 3 2 2 1 1 2 2 2 2 2 2 3 4 4 4 3 3 3 3 3 3 3 3
2 2 1 2 3 5 5 5 6 4 4 6 7 5 4 4 3 2 2 2 2 3 3 3 4 4 3 3 2 2 2 1 1 1 2 2 2 3 3 4 3 3 3 3 3 3 3 3 3
3 2 2 2 3 2 3 6 3 2 3 4 4 4 4 4 3 2 2 1 1 2 2 2 3 3 4 3 3 2 2 1 1 1 1 2 2 2 3 3 3 3 4 4 3 2 3 3 3
1 1 1 1 2 2 4 3 2 3 3 3 4 4 3 3 3 2 2 2 2 2 2 2 2 3 3 3 3 3 3 3 2 2 2 2 2 3 3 3 3 3 3 4 3 2 3 3 3
2 2 1 1 1 4 4 4 4 5 4 3 4 4 3 2 2 2 2 1 1 1 1 2 2 2 3 3 3 3 3 3 3 2 3 3 3 3 3 4 4 3 3 3 3 3 3 3 3
2 2 2 1 1 2 3 3 1 4 5 5 4 3 3 2 2 2 1 1 2 2 2 2 2 3 3 3 3 3 3 3 3 3 3 3 3 4 4 4 4 4 4 3 3 3 4 3 3
2 3 3 2 2 2 3 4 2 2 4 4 3 3 3 2 2 2 2 2 2 2 2 2 2 3 3 3 3 2 3 3 3 3 4 4 4 4 4 5 5 5 5 4 4 4 4 4 4
Wind_Direction
310 292 276 265 248 228 215 137 86 78 67 52 52 54 57 46 42 82 57 57 78 100 111 110 97 100 101 97 93 89 90 94 96 98 99 94 90 88 87 84 82 82 81 82 81 78 75 73 71
304 295 275 248 251 227 181 122 87 75 79 76 67 61 65 63 60 78 44 50 84 99 107 105 90 89 91 91 90 90 91 91 94 96 97 95 93 91 87 82 79 80 79 78 77 78 77 74 70
289 271 271 258 255 240 117 83 95 89 74 66 75 52 49 49 55 51 42 65 87 93 96 92 83 86 87 88 85 83 85 89 90 95 94 92 90 87 85 80 76 74 73 74 77 78 78 75 71
289 254 244 253 254 326 90 86 91 104 87 58 82 81 72 42 32 43 61 75 86 89 92 89 77 79 80 81 81 79 78 81 85 88 89 89 88 85 80 78 76 74 70 68 72 72 73 70 66
249 251 231 227 226 332 69 82 80 88 84 60 71 91 80 46 51 57 51 72 81 83 88 92 73 72 71 70 74 72 71 74 74 75 80 87 85 83 80 76 70 67 65 63 69 66 65 56 46
257 235 222 210 197 184 56 57 71 70 78 60 64 97 85 51 48 48 51 60 73 78 84 89 70 68 64 60 63 66 62 67 67 67 70 75 78 79 76 72 68 63 56 53 59 58 45 40 27
268 258 241 212 187 178 91 63 62 73 64 40 22 84 93 45 40 46 62 63 67 71 76 81 79 76 66 58 53 56 59 60 59 60 65 64 68 75 72 66 63 58 48 43 39 40 14 352 332
291 274 241 231 202 172 81 72 63 58 59 35 29 67 87 47 39 55 64 66 64 62 65 66 64 68 71 71 61 52 49 54 56 54 58 63 67 77 73 62 43 30 18 9 359 354 324 307 300
284 246 241 240 190 129 93 87 72 68 72 61 51 54 79 90 71 66 59 54 56 55 52 53 52 49 50 65 70 61 48 43 46 51 52 74 142 145 125 70 52 22 11 358 338 318 306 295 280
240 221 228 2 87 103 78 65 90 90 80 70 65 66 79 85 82 74 64 55 46 40 37 43 45 45 44 48 76 65 56 46 26 33 28 344 3 30 38 72 94 359 340 319 307 312 313 295 274
180 201 119 46 63 92 86 63 47 105 77 66 78 94 93 86 77 74 71 65 57 45 32 27 26 36 43 35 53 44 40 41 17 24 21 8 20 27 31 24 314 272 279 289 291 283 284 280 288
130 41 79 87 43 68 79 66 54 52 66 78 87 98 98 91 83 75 70 69 61 55 40 27 20 19 27 36 38 39 35 37 29 20 16 18 21 16 19 9 351 345 325 300 293 280 281 282 284
161 113 87 86 75 74 80 73 65 55 71 81 88 87 88 88 79 71 62 61 60 54 44 33 28 23 16 23 25 32 26 27 29 28 16 16 15 6 11 9 358 346 341 335 312 302 301 300 300
122 112 111 107 99 83 80 64 85 86 89 93 92 87 82 79 74 65 57 50 44 45 43 38 35 30 25 25 22 22 24 24 22 25 22 18 13 7 5 1 356 343 338 339 328 328 318 306 303
136 119 116 173 185 166 112 39 188 150 116 103 95 93 88 77 73 65 56 51 43 40 39 35 34 34 28 20 18 20 19 29 26 18 20 16 7 360 355 356 2 346 337 339 336 331 328 323 317
184 177 184 168 192 186 149 198 158 163 149 133 117 105 97 84 74 63 55 49 45 47 49 40 27 27 28 21 12 13 17 27 31 21 16 13 4 358 359 4 3 351 349 353 345 342 337 331 328
200 192 188 171 182 174 178 185 156 170 172 163 153 128 108 95 80 64 52 42 38 45 48 49 36 29 26 23 20 20 17 27 24 21 19 13 4 360 6 10 1 355 360 359 350 351 344 335 332
177 182 191 191 158 153 181 185 169 178 187 174 163 151 133 106 88 75 61 46 46 42 36 41 41 36 32 33 29 19 21 24 22 17 9 11 7 7 2 5 1 5 3 357 356 348 342 335 325
188 174 182 178 162 179 192 199 194 188 192 174 158 155 146 115 85 72 64 47 45 44 37 36 33 27 31 22 14 359 3 5 11 15 10 7 11 9 4 2 2 6 7 356 351 346 343 346 341
221 214 217 126 94 213 203 233 206 186 191 191 177 166 150 112 83 66 59 51 39 34 26 30 29 21 22 13 354 355 3 12 17 11 15 14 13 10 9 3 2 1 359 1 356 352 349 343 356
242 225 208 192 274 238 225 238 196 187 187 193 198 188 155 141 119 77 59 50 36 28 22 22 24 20 16 11 31 33 37 20 16 4 7 7 14 13 9 11 6 2 3 353 349 351 354 340 337
241 245 211 200 213 220 212 244 204 186 191 198 200 196 171 134 118 98 60 44 36 27 25 28 31 27 16 15 30 31 26 348 336 348 357 1 7 10 7 4 360 356 356 355 349 352 340 339 329
255 285 233 227 231 263 222 236 233 176 203 202 191 189 170 146 133 124 93 73 56 44 36 24 21 22 22 28 30 35 18 358 360 359 10 7 2 4 6 1 353 351 349 350 350 347 344 343 331
251 247 239 235 227 246 212 211 243 195 204 190 183 181 171 157 149 128 82 75 59 46 37 22 22 16 14 26 27 19 11 6 16 4 359 360 356 355 359 358 353 346 344 345 344 340 341 339 328
260 220 202 221 220 238 183 207 242 196 186 176 179 178 167 156 140 116 81 64 55 47 33 17 19 10 6 17 23 14 6 2 360 356 355 347 344 343 348 353 341 341 337 335 336 335 332 324 318
247 241 196 218 235 251 193 221 227 153 136 139 146 144 149 155 146 137 125 107 73 51 40 23 15 6 2 9 8 7 0 355 349 355 344 327 326 329 337 339 334 334 335 336 337 335 326 328 322
286 247 262 294 311 272 233 215 215 136 120 137 146 149 158 163 151 136 119 109 92 64 46 28 14 3 0 5 11 13 11 5 360 2 3 352 343 337 341 333 333 338 337 340 334 328 323 320 313
292 332 299 207 255 271 253 223 207 172 184 166 164 164 161 145 133 119 112 99 96 85 62 39 23 9 7 11 9 9 8 2 1 10 6 357 351 345 338 339 335 332 335 336 329 320 316 320 317
196 213 242 237 238 249 269 267 44 160 167 166 172 162 154 146 128 122 117 98 83 70 60 41 22 14 12 11 10 7 358 4 7 3 1 359 355 350 346 343 338 336 335 334 330 324 326 324 326
260 228 208 208 243 239 272 277 23 92 133 141 146 135 125 121 111 104 97 84 71 63 49 29 10 5 5 6 9 2 357 6 6 2 1 360 354 351 349 345 344 345 341 341 337 328 327 325 322